This demonstration page uses our WeatherBlox Daily Observations layout. Learn more.

38.89511, -77.03637

Hourly Observations for October 4, 2020

Temp ( °F °C ) Dew Point ( °F °C ) Humidity (%) Winds ( mph kmh ) Pressure ( in mb ) Visibility ( mi km ) Precip ( " mm )
12:52 am 00:52 Clear 52 11.1 49 9.4 89 89 N 5 7 30.27 1025 10 16.0934 0 0
1:52 am 01:52 Clear 53 11.7 48 8.9 83 83 N 3 6 30.27 1025 10 16.0934 0 0
2:52 am 02:52 Clear 53 11.7 47 8.3 80 80 ENE 5 7 30.26 1025 10 16.0934 0 0
3:52 am 03:52 Clear 50 10 46 7.8 86 86 N 3 6 30.25 1024 10 16.0934 0 0
4:52 am 04:52 Clear 50 10 46 7.8 86 86 N 3 6 30.25 1024 10 16.0934 0 0
5:52 am 05:52 Clear 49 9.4 46 7.8 90 90 NNW 6 9 30.25 1025 10 16.0934 0 0
6:52 am 06:52 Mostly Clear 48 8.9 45 7.2 89 89 NNW 6 9 30.26 1025 10 16.0934 0 0
7:52 am 07:52 Mostly Sunny 50 10 46 7.8 86 86 NNW 5 7 30.27 1025 10 16.0934 0 0
8:52 am 08:52 Partly Cloudy 55 12.8 48 8.9 77 77 NNW 5 7 30.27 1025 10 16.0934 0 0
9:52 am 09:52 Partly Cloudy 59 15 50 10 72 72 N 3 6 30.26 1025 10 16.0934 0 0
10:52 am 10:52 Partly Cloudy 63 17.2 49 9.4 60 60 NE 3 6 30.24 1024 10 16.0934 0 0
11:52 am 11:52 Partly Cloudy 66 18.9 46 7.8 49 49 N 6 9 30.23 1024 10 16.0934 0 0
12:52 pm 12:52 Partly Cloudy 68 20 46 7.8 45 45 NE 7 11 30.2 1023 10 16.0934 0 0
1:52 pm 13:52 Partly Cloudy 69 20.6 43 6.1 39 39 Calm 30.16 1022 10 16.0934 0 0
2:52 pm 14:52 Partly Cloudy 69 20.6 45 7.2 42 42 ENE 6 9 30.14 1021 10 16.0934 0 0
3:52 pm 15:52 Mostly Cloudy 69 20.6 44 6.7 41 41 E 6 9 30.12 1020 10 16.0934 0 0
4:52 pm 16:52 Mostly Cloudy 67 19.4 44 6.7 44 44 SE 6 9 30.11 1020 10 16.0934 0 0
5:52 pm 17:52 Mostly Cloudy 65 18.3 45 7.2 49 49 SE 8 13 30.09 1019 10 16.0934 0 0
6:52 pm 18:52 Mostly Cloudy 64 17.8 45 7.2 50 50 ESE 5 7 30.11 1020 10 16.0934 0 0
7:52 pm 19:52 Mostly Cloudy 63 17.2 47 8.3 56 56 Calm 30.11 1020 10 16.0934 0 0
8:52 pm 20:52 Mostly Cloudy 62 16.7 50 10 65 65 Calm 30.11 1020 10 16.0934 0 0
9:52 pm 21:52 Mostly Cloudy 61 16.1 51 10.6 70 70 SE 5 7 30.1 1019 10 16.0934 0 0
10:52 pm 22:52 Cloudy 60 15.6 52 11.1 75 75 SW 6 9 30.11 1020 10 16.0934 0 0
11:52 pm 23:52 Cloudy 61 16.1 52 11.1 72 72 WSW 3 6 30.1 1019 10 16.0934 0.001 0.001

Powered by AerisWeather